This site uses a module created by best online poker sites.

BSB police reports ending February 12, 2019

"02/11/2019","00:01","219CR0003426","BUSINESS CHECK","BUSINESS CHECK","122000 W BROWNS GLCH FLYING J","",""
"02/11/2019","00:21","219CR0003427","MEDICAL - EMERGENCY","MEDICAL - EMERGENCY","1825 LAYFAYETTE","",""
"02/11/2019","00:52","219CR0003428","SUSPICIOUS ACTIVITY","OUT OF JURISDICTION - MISD","3700 HARRISON AVE","",""
"02/11/2019","02:06","219CR0003429","T/S","T/S","GEORGIA AND GRAND","",""
"02/11/2019","02:08","219CR0003430","THEFT","CRIMINAL MISCHIEF","1615 LOWELL","ARREST(s) MADE",""
"02/11/2019","02:14","219CR0003431","ASSIST OTHER AGENCY","ASSIST OTHER AGENCY","I 90 MM 232 WB","",""
"02/11/2019","02:21","219CR0003432","ACCIDENT","HIT AND RUN, UNATTENDED VEHICL","1432 EASY","",""
"02/11/2019","02:36","219CR0003433","SUSPICIOUS ACTIVITY","SUSPICIOUS ACTIVITY","1400 DRIGGS","",""
"02/11/2019","02:58","219CR0003434","SUSPICIOUS ACTIVITY","SUSPICIOUS ACTIVITY","2610 HARRISON AVE","",""
"02/11/2019","03:17","219CR0003435","SUSPICIOUS ACTIVITY","SUSPICIOUS ACTIVITY","CLARKS PARK","",""
"02/11/2019","03:49","219CR0003436","TRAFFIC HAZARD","TRAFFIC HAZARD","FIRST ST AND FARRELL ST","",""
"02/11/2019","04:16","219CR0003437","MEDICAL - EMERGENCY","MEDICAL - EMERGENCY","1001 W GALENA ST","",""
"02/11/2019","05:10","219CR0003438","CITIZEN AID","CITIZEN AID","3251 NETTIE ST","",""
"02/11/2019","05:49","219CR0003439","SUSPICIOUS ACTIVITY","SUSPICIOUS ACTIVITY","3 BEARS DR 3 BEARS ALASKA","",""
"02/11/2019","06:49","219CR0003440","ALARM - BURGLARY","ALARM - BURGLARY","************","",""
"02/11/2019","06:51","219CR0003441","ALARM - FIRE","ALARM - FIRE","300 MOUNT HIGHLAND DR","",""
"02/11/2019","07:31","219CR0003442","ACCIDENT- INJURY(MHP)","ACCIDENT- INJURY(MHP)","I 90 MM 232 W BND","",""
"02/11/2019","07:37","219CR0003443","BUSINESS CHECK","BUSINESS CHECK","58 W PARK","",""
"02/11/2019","07:48","219CR0003444","CIVIL PAPER SERVICE","CIVIL PAPER SERVICE","3105 STATE ST","",""
"02/11/2019","07:53","219CR0003445","CIVIL PAPER SERVICE","CIVIL PAPER SERVICE","1923 MONROE","",""
"02/11/2019","07:54","219CR0003446","ACCIDENT","FAILURE TO WEAR SEATBELT","COBBAN AND HARRISON","",""
"02/11/2019","07:54","219CR0003447","CIVIL PAPER SERVICE","CIVIL PAPER SERVICE","2407 GEORGE","",""
"02/11/2019","08:02","219CR0003448","CIVIL PAPER SERVICE","CIVIL PAPER SERVICE","3315 CARTER","",""
"02/11/2019","08:19","219CR0003449","FIRE- GAS ODOR","FIRE- GAS ODOR","3703 HARRISON AVE","",""
"02/11/2019","08:20","219CR0003450","CIVIL PAPER SERVICE","CIVIL PAPER SERVICE","920 W QUARTZ","",""
"02/11/2019","08:24","219CR0003451","LED BUSINESS","LED BUSINESS","155 W GRANITE","",""
"02/11/2019","08:29","219CR0003452","CIVIL PAPER SERVICE","CIVIL PAPER SERVICE","4385 S ARIZONA ST","",""
"02/11/2019","08:34","219CR0003453","BUSINESS CHECK","BUSINESS CHECK","58 W PARK","",""
"02/11/2019","08:42","219CR0003454","DRUGS","POSSESSION OF DANGEROUS DRUGS","2600 GRAND AVE","ARREST(s) MADE",""
"02/11/2019","08:46","219CR0003455","T/S","T/S","GEORGE ST AND MONTANA ST","",""
"02/11/2019","08:46","219CR0003456","ACCIDENT","ACCIDENT","WHITESIDE PLACER","",""
"02/11/2019","08:47","219CR0003457","T/S","T/S","LONGFELLOW AND WYNNE ST","",""
"02/11/2019","08:56","219CR0003458","CIVIL PAPER SERVICE","CIVIL PAPER SERVICE","3417 BUSCH","",""
"02/11/2019","09:04","219CR0003459","THEFT","THEFT","648 S DAKOTA","",""
"02/11/2019","09:11","219CR0003460","CIVIL PAPER SERVICE","CIVIL PAPER SERVICE","2910 MOULTON","",""
"02/11/2019","09:23","219CR0003461","CIVIL PAPER SERVICE","CIVIL PAPER SERVICE","1021 E FRONT","",""
"02/11/2019","09:24","219CR0003462","CIVIL PAPER SERVICE","CIVIL PAPER SERVICE","667 PLACER ST","",""
"02/11/2019","09:31","219CR0003463","THEFT","THEFT, ALL OTHERS","964 JANNEY RD","",""
"02/11/2019","09:33","219CR0003464","CIVIL PAPER SERVICE","CIVIL PAPER SERVICE","1114 MARYLAND","",""
"02/11/2019","09:38","219CR0003465","CIVIL PAPER SERVICE","CIVIL PAPER SERVICE","1021 E FRONT","",""
"02/11/2019","09:59","219CR0003466","SUSPICIOUS ACTIVITY","SUSPICIOUS ACTIVITY","305 W PORPHYRY","",""
"02/11/2019","10:01","219CR0003467","THEFT","THEFT FROM BUILDINGS","3100 HARRISON GNC","",""
"02/11/2019","10:05","219CR0003468","WANTED PERSON","WANTED PERSON","************","",""
"02/11/2019","10:47","219CR0003470","WELFARE CHECK","WELFARE CHECK","220 N WYOMING #203","",""
"02/11/2019","10:53","219CR0003471","JUVENILE MISC","JUVENILE MISC","************","",""
"02/11/2019","10:53","219CR0003472","HIT AND RUN","HIT AND RUN","2900 SHERMAN","",""
"02/11/2019","11:00","219CR0003473","ASSAULT","PFMA - REASONABLE APPREHENSION","3445 N HILLCREST DR","",""
"02/11/2019","11:01","219CR0003474","CIVIL PAPER SERVICE","CIVIL PAPER SERVICE","3940 GLADSTONE","",""
"02/11/2019","11:32","219CR0003475","SUSPICIOUS ACTIVITY","SUSPICIOUS ACTIVITY","800 BLK BEEF TRAIL RD","",""
"02/11/2019","11:56","219CR0003476","JUVENILE MISC","DISORDERLY CONDUCT","1050 S MONTANA ST","ARREST(s) MADE",""
"02/11/2019","12:11","219CR0003477","T/S","T/S","COBBAN ST AND GARFIELD AVE","",""
"02/11/2019","12:31","219CR0003478","T/S","T/S","MT CON MINE PARKING LOT","",""
"02/11/2019","12:47","219CR0003480","THEFT","THEFT FROM MOTOR VEHICLE","2005 PHILLIPS AVE","",""
"02/11/2019","12:49","219CR0003481","ALARM - BURGLARY","ALARM - BURGLARY","************","",""
"02/11/2019","12:55","219CR0003482","PARKING COMPLAINT","PARKING COMPLAINT","1200 BLK W GRANITE ST","",""
"02/11/2019","12:58","219CR0003483","MEDICAL - EMERGENCY","MEDICAL - EMERGENCY","1261 W PLATINUM","",""
"02/11/2019","13:01","219CR0003484","SUSPICIOUS ACTIVITY","SUSPICIOUS ACTIVITY","600 BLK S MAIN W ALLEY","",""
"02/11/2019","13:05","219CR0003485","ALARM-DURESS","ALARM-DURESS","************","",""
"02/11/2019","13:28","219CR0003486","VEHICLE INSPECTION","VEHICLE INSPECTION","225 N ALASKA","",""
"02/11/2019","13:41","219CR0003487","CIVIL PAPER SERVICE","CIVIL PAPER SERVICE","155 W QUARTZ BSB DETENTION CEN","",""
"02/11/2019","13:44","219CR0003488","WANTED PERSON","CRIMINAL CONTEMPT","2107 CORNELL DAYS INN","ARREST(s) MADE",""
"02/11/2019","13:48","219CR0003489","UNKNOWN PROBLEM","UNKNOWN PROBLEM","830 ZARELDA","",""
"02/11/2019","14:11","219CR0003490","SUSPICIOUS ACTIVITY","SUSPICIOUS ACTIVITY","HOLLAND AND MONTANA","",""
"02/11/2019","14:15","219CR0003491","ALARM - ROBBERY","ALARM - ROBBERY","2320 AMHERST","",""
"02/11/2019","14:23","219CR0003492","CITIZEN AID","CITIZEN AID","120 N IDAHO","",""
"02/11/2019","14:29","219CR0003493","ALL OTHER","ALL OTHER","BEAVERHEAD COUNTY COURTHOUSE","",""
"02/11/2019","14:38","219CR0003494","LOST OR STOLEN PROPERTY","LOST OR STOLEN PROPERTY","122005 NISSLER RD","",""
"02/11/2019","15:18","219CR0003495","ALARM - FIRE","ALARM - FIRE","3701 ELIZABETH WARREN","",""
"02/11/2019","15:42","219CR0003496","VANDALISM/CRIMINAL MISCHIEF","FAIL TO ID, SELF AND VEHICLE","225 S CLARK","",""
"02/11/2019","16:03","219CR0003497","STOLEN VEHICLE","STOLEN VEHICLE","COPPERKING INN PARKING LOT","",""
"02/11/2019","16:06","219CR0003498","CIVIL PAPER SERVICE","CIVIL PAPER SERVICE","155 W QUARTZ BSB DETENTION CEN","",""
"02/11/2019","16:29","219CR0003499","VEHICLE INSPECTION","VEHICLE INSPECTION","536 CALEDONIA","",""
"02/11/2019","16:53","219CR0003500","DISTURBANCE","DISTURBANCE","858 S MAIN","",""
"02/11/2019","17:07","219CR0003501","MEDICAL - EMERGENCY","MEDICAL - EMERGENCY","2975 WASHOE YMCA","",""
"02/11/2019","17:12","219CR0003502","SUSPICIOUS ACTIVITY","SUSPICIOUS ACTIVITY","3200 BLK ST ANN","",""
"02/11/2019","17:27","219CR0003503","ALARM - FIRE","ALARM - FIRE","400 S CLARK ST JAMES HEALTH","",""
"02/11/2019","17:46","219CR0003504","ANIMAL COMPLAINT","ANIMAL COMPLAINT","I15 EXIT 93 MELROSE","",""
"02/11/2019","18:57","219CR0003505","ASSAULT","ASSAULT","************","",""
"02/11/2019","19:12","219CR0003506","T/S","T/S @ DEWEY AND ROWE RD","DEWEY AND ROWE RD","",""
"02/11/2019","19:24","219CR0003507","VANDALISM/CRIMINAL MISCHIEF","CRIMINAL MISCHIEF","304 N MAIN","ARREST(s) MADE",""
"02/11/2019","19:35","219CR0003508","STOLEN VEHICLE","MOTOR VEHICLE THEFT","3547 HARRISON AVE","",""
"02/11/2019","20:46","219CR0003509","MEDICAL - EMERGENCY","MEDICAL - EMERGENCY","119122 LONE PINE GULCH RD","",""
"02/11/2019","20:47","219CR0003510","BUSINESS CHECK","BUSINESS CHECK","2544 HARRISON","",""
"02/11/2019","20:50","219CR0003511","DISTURBANCE","DISTURBANCE","612 S IDAHO","",""
"02/11/2019","20:53","219CR0003512","DISTURBANCE","DISTURBANCE","2929 HARRISON AVE #214","",""
"02/11/2019","21:21","219CR0003513","WELFARE CHECK","WELFARE CHECK","114 MAIDEN ROCK RD","",""
"02/11/2019","21:34","219CR0003514","UNKNOWN PROBLEM","UNKNOWN PROBLEM","910 EVANS C BUILDING","",""
"02/11/2019","23:19","219CR0003515","DISTURBANCE","DISTURBANCE","910 EVANS APT E2","",""
"02/12/2019","00:29","219CR0003516","BUSINESS CHECK","BUSINESS CHECK","1000 GRIZZLY TRAIL","",""
"02/12/2019","00:33","219CR0003517","BUSINESS CHECK","BUSINESS CHECK","FLYING J 122000 BROWNS GLCH RD","",""
"02/12/2019","00:40","219CR0003518","WELFARE CHECK","WELFARE CHECK","531 S CRYSTAL","",""
"02/12/2019","01:06","219CR0003519","SUSPICIOUS ACTIVITY","SUSPICIOUS ACTIVITY","EXCELSIOR AND WAUKESHA","",""
"02/12/2019","01:25","219CR0003520","SUSPICIOUS ACTIVITY","ASSAULT WITH WEAPON","1316 KAW","",""
"02/12/2019","01:28","219CR0003521","MEDICAL - EMERGENCY","MEDICAL - EMERGENCY","909 W GALENA ST","",""
"02/12/2019","02:24","219CR0003522","ALARM - BURGLARY","ALARM - BURGLARY","************","",""
"02/12/2019","02:42","219CR0003523","DISTURBANCE","DISTURBANCE","501 W GRANITE ST","",""
"02/12/2019","02:50","219CR0003524","MEDICAL - ASSIST","MEDICAL - ASSIST","************","",""
"02/12/2019","02:55","219CR0003525","BURGLARY","BURGLARY","855 EMPIRE","",""
"02/12/2019","03:51","219CR0003526","HARASSMENT","HARASSMENT","220 N WYOMING","",""
"02/12/2019","03:56","219CR0003527","ALARM - BURGLARY","ALARM - BURGLARY","************","",""
"02/12/2019","04:16","219CR0003528","MEDICAL - EMERGENCY","MEDICAL - EMERGENCY","25 E GRANITE #310","",""
"02/12/2019","04:20","219CR0003529","SUSPICIOUS ACTIVITY","SUSPICIOUS ACTIVITY","431 N WYOMING","",""
"02/12/2019","07:36","219CR0003531","CIVIL PAPER SERVICE","CIVIL PAPER SERVICE","3800 S ARIZONA","",""
"02/12/2019","07:46","219CR0003532","CIVIL PAPER SERVICE","CIVIL PAPER SERVICE","920 W QUARTZ","",""
 

BSB police reports ending February 11, 2019

"02/08/2019","00:18","219CR0003190","MISSING PERSON","MISSING PERSON","************","",""
"02/08/2019","00:51","219CR0003191","MEDICAL - EMERGENCY","MEDICAL - EMERGENCY","2900 KENNEDY","",""
"02/08/2019","03:13","219CR0003192","THEFT","THEFT, SHOPLIFT","2544 HARRISON","",""
"02/08/2019","06:15","219CR0003193","LED BUSINESS","LED BUSINESS","155 W GRANITE","",""
"02/08/2019","06:42","219CR0003194","UNKNOWN PROBLEM","UNKNOWN PROBLEM","EARTH // STAR LANE","",""
"02/08/2019","07:01","219CR0003195","MEDICAL - EMERGENCY","MEDICAL - EMERGENCY","3017 PAXSON AVE","",""
"02/08/2019","07:55","219CR0003196","ACCIDENT-MHP","ACCIDENT-MHP","I15 MM 157 NB","",""
"02/08/2019","07:59","219CR0003197","CIVIL PAPER SERVICE","CIVIL PAPER SERVICE","938 CALIFORNIA","",""
"02/08/2019","08:13","219CR0003199","CIVIL PAPER SERVICE","CIVIL PAPER SERVICE","2517 WALNUT","",""
"02/08/2019","08:27","219CR0003200","ASSIST OTHER AGENCY","ASSIST OTHER AGENCY","1825 GAYLORD","",""
"02/08/2019","08:43","219CR0003201","ALARM - FIRE","ALARM - FIRE","2340 HARRISON AVE","",""
"02/08/2019","08:54","219CR0003202","MEDICAL - EMERGENCY","MEDICAL - EMERGENCY","314 S WASHINGTON","",""
"02/08/2019","09:00","219CR0003203","CIVIL PAPER SERVICE","CIVIL PAPER SERVICE","1032 ZARELDA","",""
"02/08/2019","09:15","219CR0003204","ASSIST OTHER AGENCY","ASSIST OTHER AGENCY","I90 MM 233 1/2 E BND","",""
"02/08/2019","09:18","219CR0003205","T/S","T/S @ 2100 BLK HARRISON AVE","2100 BLK HARRISON AVE","",""
"02/08/2019","09:25","219CR0003206","CIVIL PAPER SERVICE","CIVIL PAPER SERVICE","516 HOLMES","",""
"02/08/2019","09:34","219CR0003207","CIVIL PAPER SERVICE","CIVIL PAPER SERVICE","10 S MAIN","",""
"02/08/2019","09:38","219CR0003208","T/S","T/S @ COBBAN AND HARRISON","COBBAN AND HARRISON","",""
"02/08/2019","09:44","219CR0003209","CITIZEN AID","CITIZEN AID","2825 ELM","",""
"02/08/2019","09:50","219CR0003210","T/S","T/S @ COBBAN ST AND JOHNS ST","COBBAN ST AND JOHNS ST","",""
"02/08/2019","09:53","219CR0003211","ACCIDENT","ACCIDENT","1300 BLK W GRANITE ST","",""
"02/08/2019","10:16","219CR0003212","THEFT","THEFT","1324 HARRISON AVE","",""
"02/08/2019","10:19","219CR0003213","UNWANTED PERSON","UNWANTED PERSON","************","",""
"02/08/2019","10:21","219CR0003214","JUVENILE MISC","POSSESSION OF TOBACCO PRODUCTS","2600 GRAND AVE","",""
"02/08/2019","10:50","219CR0003215","UNWANTED PERSON","UNWANTED PERSON","************","",""
"02/08/2019","11:04","219CR0003216","JUVENILE MISC","POSSESS DRUG PARAPHERNALIA","1050 S MONTANA","ARREST(s) MADE",""
"02/08/2019","11:13","219CR0003217","ASSIST OTHER AGENCY","ASSIST OTHER AGENCY","1811 4 MILE RD","",""
"02/08/2019","11:16","219CR0003218","ACCIDENT","ACCIDENT","COBBAN AND FARRAGUT","",""
"02/08/2019","11:22","219CR0003219","T/S","T/S @ COBBAN ST AND REYNOLDS ST","COBBAN ST AND REYNOLDS ST","",""
"02/08/2019","11:34","219CR0003220","ANIMAL COMPLAINT","ANIMAL COMPLAINT","937 SUTTER","",""
"02/08/2019","11:35","219CR0003221","JUVENILE MISC","UNGOVERNABLE JUVENILE","2600 GRAND AVE","ARREST(s) MADE",""
"02/08/2019","11:36","219CR0003222","T/S","T/S @ 2000 BLK HARRISON AVE","2000 BLK HARRISON AVE","",""
"02/08/2019","11:49","219CR0003223","DETENTION BUSINESS","DETENTION BUSINESS","************","",""
"02/08/2019","11:56","219CR0003225","INFORMATION ONLY","INFORMATION ONLY","201 HOBSON AVE #46","",""
"02/08/2019","12:13","219CR0003226","STOLEN VEHICLE","STOLEN VEHICLE","1200 BLK W SILVER","",""
"02/08/2019","12:15","219CR0003227","JUVENILE MISC","JUVENILE MISC","************","",""
"02/08/2019","12:19","219CR0003228","ACCIDENT","ACCIDENT","1400 BLK W GRANITE","",""
"02/08/2019","12:34","219CR0003230","STOLEN VEHICLE","STOLEN VEHICLE","S ROCKER RD","",""
"02/08/2019","12:36","219CR0003229","INFORMATION ONLY","INFORMATION ONLY","3251 NETTIE/EVERGREEN","",""
"02/08/2019","12:46","219CR0003231","VEHICLE INSPECTION","VEHICLE INSPECTION","15 BENNETT","",""
"02/08/2019","12:50","219CR0003232","LED BUSINESS","LED BUSINESS","106 W BROADWAY","",""
"02/08/2019","12:58","219CR0003233","MEDICAL - EMERGENCY","MEDICAL - EMERGENCY","2812 STATE ST","",""
"02/08/2019","13:01","219CR0003234","HARASSMENT","HARASSMENT","","",""
"02/08/2019","13:27","219CR0003235","LED BUSINESS","LED BUSINESS","403 W BOARDMAN","",""
"02/08/2019","13:36","219CR0003236","UNWANTED PERSON","UNWANTED PERSON","************","",""
"02/08/2019","13:55","219CR0003238","MEDICAL - EMERGENCY","MEDICAL - EMERGENCY","50 W BROADWAY #603","",""
"02/08/2019","13:55","219CR0003237","T/S","T/S @ HARRRISON AND HOLMES","HARRRISON AND HOLMES","",""
"02/08/2019","14:18","219CR0003239","DRUGS","DRUGS","************","",""
"02/08/2019","14:19","219CR0003240","CITIZEN AID","CITIZEN AID","ADAMS ST AND COBBAN ST","",""
"02/08/2019","14:24","219CR0003241","THEFT","THEFT","3901 HARRISON AVE","",""
"02/08/2019","14:27","219CR0003242","ASSIST OTHER AGENCY","ASSIST OTHER AGENCY","I15 MM 96 NBND","",""
"02/08/2019","14:43","219CR0003243","T/S","CRIMINAL CONTEMPT","IRON AND PLR","ARREST(s) MADE",""
"02/08/2019","15:04","219CR0003244","WANTED PERSON","RESISTING ARREST","825 HIGHLAND AVE","ARREST(s) MADE",""
"02/08/2019","15:42","219CR0003245","DISTURBANCE","DISTURBANCE","307 N WASHINGTON","",""
"02/08/2019","15:58","219CR0003246","ACCIDENT","ACCIDENT","DIAMOND AND EMMETT","",""
"02/08/2019","16:02","219CR0003247","JUVENILE MISC","JUVENILE MISC","************","",""
"02/08/2019","16:09","219CR0003248","JUVENILE MISC","JUVENILE MISC","************","",""
"02/08/2019","16:11","219CR0003249","UNWANTED PERSON","UNWANTED PERSON","************","",""
"02/08/2019","16:17","219CR0003250","DISTURBANCE","DISTURBANCE","220 N WYOMING","",""
"02/08/2019","16:27","219CR0003251","SUICIDE ATTEMPT/THREAT","SUICIDE ATTEMPT/THREAT","************","",""
"02/08/2019","16:49","219CR0003252","THEFT","THEFT","3901 HARRISON AVE","",""
"02/08/2019","17:34","219CR0003253","WELFARE CHECK","WELFARE CHECK","COBBAN AND WARREN","",""
"02/08/2019","17:51","219CR0003254","T/S","T/S","HARRISON AND GEORGE","",""
"02/08/2019","18:08","219CR0003255","ALARM - BURGLARY","ALARM - BURGLARY","************","",""
"02/08/2019","18:15","219CR0003256","WELFARE CHECK","WELFARE CHECK","2935 GOODWIN ST","",""
"02/08/2019","18:19","219CR0003257","CITIZEN AID","CITIZEN AID","832 ZARELDA","",""
"02/08/2019","18:26","219CR0003258","ALL OTHER","PFMA - REASONABLE APPREHENSION","1821 MONROE","ARREST(s) MADE",""
"02/08/2019","18:45","219CR0003259","VANDALISM/CRIMINAL MISCHIEF","CRIMINAL MISCHIEF","206 E SECOND ST","ARREST(s) MADE",""
"02/08/2019","18:50","219CR0003261","ACCIDENT","ACCIDENT","2902 HARRISON AVE","",""
"02/08/2019","19:25","219CR0003262","T/S","T/S","PARK AND WYOMING ST","",""
"02/08/2019","19:25","219CR0003263","T/S","T/S","","",""
"02/08/2019","19:28","219CR0003264","ACCIDENT","ACCIDENT","2902 HARRISON AVE","",""
"02/08/2019","19:35","219CR0003265","CITIZEN AID","CITIZEN AID","I15 MM 121 SB","",""
"02/08/2019","19:41","219CR0003266","UNWANTED PERSON","FAILURE TO DISPERSE","301 E MERCURY ST","ARREST(s) MADE",""
"02/08/2019","19:42","219CR0003267","MEDICAL - EMERGENCY","MEDICAL - EMERGENCY","501 W GRANITE #302","",""
"02/08/2019","19:53","219CR0003268","T/S","T/S @ PARK ST AND ARIZONA ST","PARK ST AND ARIZONA ST","",""
"02/08/2019","19:57","219CR0003269","WELFARE CHECK","WELFARE CHECK","5100 S WARREN #63","",""
"02/08/2019","20:41","219CR0003270","T/S","T/S @ 1370 HARRISON","1370 HARRISON","",""
"02/08/2019","20:45","219CR0003271","T/S","T/S","BANKS AND WHITE BLVD","",""
"02/08/2019","20:46","219CR0003272","JUVENILE MISC","JUVENILE MISC","************","",""
"02/08/2019","21:43","219CR0003273","HARASSMENT","HARASSMENT","5100 S WARREN AVE #62","",""
"02/08/2019","21:50","219CR0003274","UNWANTED PERSON","UNWANTED PERSON","************","",""
"02/08/2019","22:25","219CR0003275","DISTURBANCE-NOISE","DISTURBANCE-NOISE","635 W GRANITE","",""
"02/08/2019","22:56","219CR0003276","ALARM - MEDICAL","ALARM - MEDICAL","************","",""
"02/08/2019","22:57","219CR0003277","T/S","T/S","SHIELDS AVE AND HOWARD","",""
"02/08/2019","23:12","219CR0003278","WELFARE CHECK","CRIMINAL CONTEMPT","910 EVANS ST APT D2","ARREST(s) MADE",""
"02/08/2019","23:18","219CR0003279","T/S","T/S","HARRISON AND 4 MILE RD","",""
"02/08/2019","23:42","219CR0003280","CITIZEN AID","CITIZEN AID","1 W PARK","",""
"02/08/2019","23:42","219CR0003281","SUSPICIOUS ACTIVITY","SUSPICIOUS ACTIVITY","FRONT ST AT SAFEWAY STORE","",""
"02/08/2019","23:49","219CR0003282","SUSPICIOUS ACTIVITY","SUSPICIOUS ACTIVITY","BROADWAY AND MAIN","",""
"02/09/2019","00:20","219CR0003283","DISTURBANCE","DISTURBANCE","2900 HARRISON","",""
"02/09/2019","00:40","219CR0003284","BUSINESS CHECK","BUSINESS CHECK","1370 HARRISON","",""
"02/09/2019","01:23","219CR0003285","BUSINESS CHECK","BUSINESS CHECK","2544 HARRISON","",""
"02/09/2019","01:43","219CR0003286","SUSPICIOUS ACTIVITY","SUSPICIOUS ACTIVITY","1800 BLK WILSON","",""
"02/09/2019","01:47","219CR0003287","BURGLARY","CRIMINAL MISCHIEF","968 W BROADWAY","ARREST(s) MADE",""
"02/09/2019","02:00","219CR0003288","SUSPICIOUS ACTIVITY","SUSPICIOUS ACTIVITY","MADISON AND SHIELDS","",""
"02/09/2019","02:05","219CR0003289","SUSPICIOUS ACTIVITY","SUSPICIOUS ACTIVITY","","",""
"02/09/2019","02:12","219CR0003290","ATL","ATL","1370 HARRISON","",""
"02/09/2019","02:20","219CR0003291","SUSPICIOUS ACTIVITY","SUSPICIOUS ACTIVITY","1050 W PARK","",""
"02/09/2019","04:03","219CR0003292","ASSIST OTHER AGENCY","ASSIST OTHER AGENCY","I15 MM116","",""
"02/09/2019","04:11","219CR0003293","DISTURBANCE-NOISE","DISTURBANCE-NOISE","635 W GRANITE","",""
"02/09/2019","06:58","219CR0003294","SUSPICIOUS ACTIVITY","SUSPICIOUS ACTIVITY","EMMA AND SHORT","",""
"02/09/2019","07:27","219CR0003295","ALARM - BURGLARY","ALARM - BURGLARY","************","",""
"02/09/2019","07:29","219CR0003296","MEDICAL - EMERGENCY","MEDICAL - EMERGENCY","3701 ELIZABETH WARREN #213","",""
"02/09/2019","07:42","219CR0003297","INTIMIDATION","INTIMIDATION","1007 PLACER ST","",""
"02/09/2019","08:15","219CR0003298","FRAUD","FORGERY/COUNTERFEIT","2801 HARRISON","",""
"02/09/2019","08:47","219CR0003299","CIVIL PAPER SERVICE","CIVIL PAPER SERVICE","3105 STATE ST","",""
"02/09/2019","08:57","219CR0003300","TRAFFIC HAZARD","TRAFFIC HAZARD","ELIZABETH WARREN AND BLACKTAIL","",""
"02/09/2019","09:27","219CR0003301","CIVIL PAPER SERVICE","CIVIL PAPER SERVICE","3605 OREGON","",""
"02/09/2019","09:34","219CR0003302","FIRE- GAS ODOR","FIRE- GAS ODOR","50 FORD LANE","",""
"02/09/2019","09:35","219CR0003303","UNKNOWN PROBLEM","UNKNOWN PROBLEM","1622 ELM ST","",""
"02/09/2019","10:11","219CR0003304","MEDICAL - EMERGENCY","MEDICAL - EMERGENCY","812 SILVER BOW HOMES","",""
"02/09/2019","10:15","219CR0003305","HIT AND RUN","HIT AND RUN","2900 BLK HARRISON AVE","",""
"02/09/2019","10:32","219CR0003306","THEFT","THEFT","3901 HARRISON AVE","",""
"02/09/2019","11:41","219CR0003307","THEFT","THEFT OF SERVICES","2100 CORNELL/QUALITY INN","",""
"02/09/2019","11:50","219CR0003308","TRAFFIC HAZARD","TRAFFIC HAZARD","115 MM 123 N BND","",""
"02/09/2019","12:09","219CR0003309","TRAFFIC HAZARD","TRAFFIC HAZARD","MAIN AND WOOLMAN","",""
"02/09/2019","12:31","219CR0003310","ALARM - FIRE","ALARM - FIRE","53 W PARK","",""
"02/09/2019","13:37","219CR0003311","LED BUSINESS","PROTECTIVE CUSTODY","225 N ALASKA","",""
"02/09/2019","13:47","219CR0003312","BUSINESS CHECK","BUSINESS CHECK","20 W GALENA","",""
"02/09/2019","14:02","219CR0003313","ASSIST OTHER AGENCY","ASSIST OTHER AGENCY","2929 HARRISON AVE","",""
"02/09/2019","14:11","219CR0003314","ILLEGAL SHOOTING","CRIMINAL ENDANGERMENT","3135 ST ANN ST","",""
"02/09/2019","14:22","219CR0003315","DISTURBANCE","DISTURBANCE","309 SILVER BOW HOMES","",""
"02/09/2019","14:47","219CR0003316","MEDICAL - EMERGENCY","MEDICAL - EMERGENCY","2001 OREGON AVE","",""
"02/09/2019","14:55","219CR0003317","LED BUSINESS","LED BUSINESS","155 W GRANITE ST","",""
"02/09/2019","14:55","219CR0003318","ALL OTHER","CRIMINAL CONTEMPT","3703 HARRISON","ARREST(s) MADE",""
"02/09/2019","15:08","219CR0003319","ASSIST OTHER AGENCY","ASSIST OTHER AGENCY","I90 MM 180 EBND","",""
"02/09/2019","15:34","219CR0003320","THEFT","THEFT","1511 GAYLORD","",""
"02/09/2019","15:38","219CR0003321","THEFT","BURGLARY, NON-RESIDENCE","1126 IOWA","",""
"02/09/2019","15:46","219CR0003322","T/S","T/S","HARRISON AVE AND NOYES ST","",""
"02/09/2019","15:56","219CR0003323","SUSPICIOUS ACTIVITY","SUSPICIOUS ACTIVITY","832 S MONTANA","",""
"02/09/2019","16:27","219CR0003324","ALL OTHER","ALL OTHER","1045 OREGON","",""
"02/09/2019","16:32","219CR0003325","ALL OTHER","ALL OTHER","1231 FIRST ST","",""
"02/09/2019","16:58","219CR0003326","SUICIDE ATTEMPT/THREAT","SUICIDE ATTEMPT/THREAT","************","",""
"02/09/2019","17:21","219CR0003327","MEDICAL - EMERGENCY","MEDICAL - EMERGENCY","2600 S MAIN ST","",""
"02/09/2019","17:25","219CR0003328","ANIMAL COMPLAINT","ANIMAL COMPLAINT","PAXSON AVE AND 4 MILE RD","",""
"02/09/2019","17:49","219CR0003329","ALARM - MEDICAL","ALARM - MEDICAL","************","",""
"02/09/2019","17:53","219CR0003330","WELFARE CHECK","WELFARE CHECK","1740 HOLMES","",""
"02/09/2019","18:21","219CR0003331","ASSIST OTHER AGENCY","ASSIST OTHER AGENCY","I15 MM 158 SB","",""
"02/09/2019","18:29","219CR0003332","T/S","T/S","2605 HARRISON AVE","",""
"02/09/2019","18:41","219CR0003333","ALARM - BURGLARY","ALARM - BURGLARY","************","",""
"02/09/2019","18:44","219CR0003334","DISTURBANCE","PFMA - REASONABLE APPREHENSION","1320 GERMAN GULCH RD","",""
"02/09/2019","18:51","219CR0003336","T/S","T/S","FLORENCE ST AND COBBAN ST","",""
"02/09/2019","19:06","219CR0003337","MEDICAL - EMERGENCY","MEDICAL - EMERGENCY","1224 W ALUMINUM","",""
"02/09/2019","19:08","219CR0003339","PARKING COMPLAINT","PARKING COMPLAINT","1800 BLOCK PHILLIPS AVE","",""
"02/09/2019","19:09","219CR0003338","TRAFFIC HAZARD","TRAFFIC HAZARD","MM232 I90 WB","",""
"02/09/2019","19:25","219CR0003340","T/S","T/S","HARRISON AVE AND MCKINLEY ST","",""
"02/09/2019","20:03","219CR0003341","BUSINESS CHECK","BUSINESS CHECK","2544 HARRISON","",""
"02/09/2019","21:29","219CR0003342","WELFARE CHECK","WELFARE CHECK","3801 CONTINENTAL DR","",""
"02/09/2019","21:59","219CR0003343","T/S","T/S @ 2551 HARRISON AVE","2551 HARRISON AVE","",""
"02/09/2019","22:14","219CR0003344","T/S","T/S","HARRISON AND HARVARD","",""
"02/09/2019","22:26","219CR0003345","T/S","T/S @ MONTANA ST AND ALUMINUM ST","MONTANA ST AND ALUMINUM ST","",""
"02/09/2019","22:33","219CR0003346","T/S","T/S","DAKOTA AND GALENA","",""
"02/09/2019","22:45","219CR0003347","MEDICAL - EMERGENCY","MEDICAL - EMERGENCY","2549 FLORAL","",""
"02/09/2019","22:55","219CR0003348","T/S","T/S @ 1300 ROW SILVERBOW HOMES","1300 ROW SILVERBOW HOMES","",""
"02/09/2019","22:56","219CR0003349","T/S","CRIMINAL CONTEMPT","HARRISON AND HARVARD","ARREST(s) MADE",""
"02/09/2019","23:04","219CR0003350","ALARM - BURGLARY","ALARM - BURGLARY","************","",""
"02/09/2019","23:13","219CR0003351","T/S","T/S","BROADWAY AND MONTANA ST","",""
"02/09/2019","23:40","219CR0003352","T/S","T/S @ DAKOTA AND GOLD","DAKOTA AND GOLD","",""
"02/09/2019","23:56","219CR0003353","BUSINESS CHECK","BUSINESS CHECK","531 S MONTANA","",""
"02/10/2019","00:00","219CR0003354","T/S","T/S @ CIVIC CENTER AND HARRISON AVE","CIVIC CENTER AND HARRISON AVE","",""
"02/10/2019","00:13","219CR0003355","BUSINESS CHECK","BUSINESS CHECK","2544 HARRISON","",""
"02/10/2019","00:20","219CR0003356","BUSINESS CHECK","BUSINESS CHECK","1370 HARRISON","",""
"02/10/2019","00:46","219CR0003358","T/S","T/S","MERCURY AND ARIZONA","",""
"02/10/2019","00:46","219CR0003357","T/S","T/S @ HARRISON AND B ST","HARRISON AND B ST","",""
"02/10/2019","01:08","219CR0003360","MEDICAL - EMERGENCY","MEDICAL - EMERGENCY","112 N MAIN","",""
"02/10/2019","01:13","219CR0003361","MEDICAL - EMERGENCY","MEDICAL - EMERGENCY","20 S MONTANA ST","",""
"02/10/2019","01:22","219CR0003362","DISTURBANCE","DISTURBANCE","20 S MONTANA ST","",""
"02/10/2019","01:32","219CR0003363","ASSIST OTHER AGENCY","ASSIST OTHER AGENCY","701 N MAIN","",""
"02/10/2019","01:42","219CR0003364","SUSPICIOUS ACTIVITY","SUSPICIOUS ACTIVITY","3200 DEXTER EAST SIDE AC","",""
"02/10/2019","01:49","219CR0003365","SUSPICIOUS ACTIVITY","SUSPICIOUS ACTIVITY","9 N MAIN ST","",""
"02/10/2019","01:58","219CR0003366","SUSPICIOUS ACTIVITY","SUSPICIOUS ACTIVITY","125 W BOARDMAN","",""
"02/10/2019","02:04","219CR0003367","STOLEN VEHICLE","UNAUTHORIZED USE OF MOTOR VEH","3 BENNETT","ARREST(s) MADE",""
"02/10/2019","04:08","219CR0003368","CITIZEN AID","DUI DRUGS OR ALCOHOL","I90 MM 219 EAST BND","ARREST(s) MADE",""
"02/10/2019","06:51","219CR0003369","ALARM - BURGLARY","ALARM - BURGLARY","************","",""
"02/10/2019","08:08","219CR0003370","SUSPICIOUS ACTIVITY","POSSESS DRUG PARAPHERNALIA","1000 BLK S EXCELSIOR AVE","ARREST(s) MADE",""
"02/10/2019","08:38","219CR0003371","SUSPICIOUS ACTIVITY","SUSPICIOUS ACTIVITY","630 W IRON","",""
"02/10/2019","09:16","219CR0003372","THEFT","THEFT OF VEHICLE PARTS/ACCESSO","2929 HARRISON AVE","",""
"02/10/2019","09:23","219CR0003373","WELFARE CHECK","WELFARE CHECK","111 AIRPORT RD","",""
"02/10/2019","09:37","219CR0003374","WELFARE CHECK","WELFARE CHECK","1127 SCHLEY","",""
"02/10/2019","09:50","219CR0003375","VANDALISM/CRIMINAL MISCHIEF","VANDALISM/CRIMINAL MISCHIEF","189 TRINITY LOOP","",""
"02/10/2019","10:08","219CR0003376","T/S","T/S","AMHERST AND HARRISON","",""
"02/10/2019","10:16","219CR0003377","WANTED PERSON","WANTED PERSON","************","",""
"02/10/2019","11:06","219CR0003378","CITIZEN AID","CITIZEN AID","1408 DEWEY BLVD","",""
"02/10/2019","11:16","219CR0003379","UNWANTED PERSON","UNWANTED PERSON","************","",""
"02/10/2019","11:59","219CR0003380","TRAFFIC HAZARD","TRAFFIC HAZARD","ROOSEVELT AND SANDERS","",""
"02/10/2019","12:15","219CR0003381","INFORMATION ONLY","INFORMATION ONLY","","",""
"02/10/2019","12:58","219CR0003382","HIT AND RUN","HIT AND RUN, UNATTENDED VEHICL","1938 GARRISON","",""
"02/10/2019","13:04","219CR0003383","ANIMAL COMPLAINT-BITE","ANIMAL COMPLAINT-BITE","925 W QUARTZ","",""
"02/10/2019","13:59","219CR0003384","TRAFFIC HAZARD","TRAFFIC HAZARD","300 BLK W BOARDMAN","",""
"02/10/2019","14:09","219CR0003385","ALARM - FIRE","ALARM - FIRE","2 CEDAR LAKE DR","",""
"02/10/2019","14:25","219CR0003386","T/S","T/S","401 N WYOMING","",""
"02/10/2019","14:34","219CR0003387","THEFT","THEFT, SHOPLIFT","3205 HARRISON","",""
"02/10/2019","14:37","219CR0003388","T/S","T/S","MAIN ST AND QUARTZ ST","",""
"02/10/2019","14:41","219CR0003389","T/S","T/S","1315 S MONTANA","",""
"02/10/2019","15:13","219CR0003390","ALL OTHER","ALL OTHER","3 RUSSELL ST RAMSAY SCHOOL","",""
"02/10/2019","15:25","219CR0003391","WELFARE CHECK","WELFARE CHECK","723 N HENRY","",""
"02/10/2019","15:37","219CR0003392","DISTURBANCE","DISTURBANCE","1449 DEWEY","",""
"02/10/2019","15:49","219CR0003393","UNWANTED PERSON","UNWANTED PERSON","************","",""
"02/10/2019","16:14","219CR0003394","T/S","T/S","225 N ALASKA","",""
"02/10/2019","16:14","219CR0003395","DISTURBANCE","DISTURBANCE","3700 HARRISON/ TOWN PUMP","",""
"02/10/2019","16:14","219CR0003396","ANIMAL COMPLAINT","ANIMAL COMPLAINT","HARRISON AT MCDONALDS","",""
"02/10/2019","16:18","219CR0003397","TRAFFIC","TRAFFIC","I15 MM 100 SBND","",""
"02/10/2019","16:21","219CR0003398","THEFT","THEFT, SHOPLIFT","3901 HARRISON AVE","",""
"02/10/2019","16:46","219CR0003399","WANTED PERSON","WANTED PERSON","************","",""
"02/10/2019","16:50","219CR0003400","FOUND PROPERTY","FOUND PROPERTY","************","",""
"02/10/2019","17:38","219CR0003401","WANTED PERSON","CRIMINAL CONTEMPT","2315 SILVERBOW BLVD","ARREST(s) MADE",""
"02/10/2019","17:42","219CR0003402","VANDALISM/CRIMINAL MISCHIEF","CRIMINAL MISCHIEF","21 S MONTANA HEADFRAME SPIRITS","",""
"02/10/2019","17:54","219CR0003403","ALL OTHER","ALL OTHER","I90 EB EXIT 228","",""
"02/10/2019","18:02","219CR0003404","MEDICAL - EMERGENCY","MEDICAL - EMERGENCY","2700 PRINCETON ST","",""
"02/10/2019","18:14","219CR0003405","HARASSMENT","HARASSMENT","2711 HARRISON AVE TOWN PUMP","",""
"02/10/2019","18:16","219CR0003406","THEFT","THEFT","3901 HARRISON AVE","",""
"02/10/2019","18:37","219CR0003407","DISTURBANCE","DISTURBANCE","1449 DEWEY","",""
"02/10/2019","18:58","219CR0003408","DISTURBANCE","DISTURBANCE","2609 HARRISON AVE","",""
"02/10/2019","19:03","219CR0003409","WELFARE CHECK","WELFARE CHECK","1653 HARRISON","",""
"02/10/2019","19:14","219CR0003410","ANIMAL COMPLAINT","ANIMAL COMPLAINT","MINAH ST AND MAIN ST","",""
"02/10/2019","19:36","219CR0003411","BUSINESS CHECK","BUSINESS CHECK","2544 HARRISON","",""
"02/10/2019","19:43","219CR0003412","SUSPICIOUS ACTIVITY","SUSPICIOUS ACTIVITY","MAIN AT BUFFALO","",""
"02/10/2019","20:31","219CR0003413","STOLEN VEHICLE","MOTOR VEHICLE THEFT","3700 HARRISON AVE","",""
"02/10/2019","20:55","219CR0003414","THEFT","THEFT, ALL OTHERS","1808 THORNTON","",""
"02/10/2019","20:57","219CR0003415","SUSPICIOUS ACTIVITY","SUSPICIOUS ACTIVITY","2544 HARRISON","",""
"02/10/2019","21:32","219CR0003416","VANDALISM/CRIMINAL MISCHIEF","VANDALISM/CRIMINAL MISCHIEF","5100 S WARREN AVE #62","",""
"02/10/2019","21:49","219CR0003417","DRUGS","POSSESSION OF DANGEROUS DRUGS","155 W QUARTZ ST","ARREST(s) MADE",""
"02/10/2019","22:37","219CR0003418","MEDICAL - EMERGENCY","MEDICAL - EMERGENCY","300 MOUNT HIGHLAND DR","",""
"02/10/2019","22:41","219CR0003419","T/S","T/S","3745 HARRISON AVE","",""
"02/10/2019","22:59","219CR0003420","SUSPICIOUS ACTIVITY","SUSPICIOUS ACTIVITY","220 CURTIS","",""
"02/10/2019","23:14","219CR0003421","SUICIDE ATTEMPT/THREAT","SUICIDE ATTEMPT/THREAT","************","",""
"02/10/2019","23:16","219CR0003422","MEDICAL - EMERGENCY","MEDICAL - EMERGENCY","503 SILVERBOW HOMES","",""
"02/10/2019","23:26","219CR0003423","T/S","T/S","PARK AND DAKOTA","",""
"02/10/2019","23:42","219CR0003424","HARASSMENT","PRIVACY IN COMMUNICATION","817 S DAKOTA","",""
"02/10/2019","23:52","219CR0003425","BUSINESS CHECK","BUSINESS CHECK","1000 GRIZZLY TRAIL/LUCKY LILS","",""
"02/11/2019","00:01","219CR0003426","BUSINESS CHECK","BUSINESS CHECK","122000 W BROWNS GLCH FLYING J","",""
"02/11/2019","00:21","219CR0003427","MEDICAL - EMERGENCY","MEDICAL - EMERGENCY","1825 LAYFAYETTE","",""
"02/11/2019","00:52","219CR0003428","SUSPICIOUS ACTIVITY","OUT OF JURISDICTION - MISD","3700 HARRISON AVE","",""
"02/11/2019","02:06","219CR0003429","T/S","T/S","GEORGIA AND GRAND","",""
"02/11/2019","02:08","219CR0003430","THEFT","CRIMINAL MISCHIEF","1615 LOWELL","ARREST(s) MADE",""
"02/11/2019","02:14","219CR0003431","ASSIST OTHER AGENCY","ASSIST OTHER AGENCY","I 90 MM 232 WB","",""
"02/11/2019","02:21","219CR0003432","ACCIDENT","ACCIDENT","1432 EASY","",""
"02/11/2019","02:36","219CR0003433","SUSPICIOUS ACTIVITY","SUSPICIOUS ACTIVITY","1400 DRIGGS","",""
"02/11/2019","02:58","219CR0003434","SUSPICIOUS ACTIVITY","SUSPICIOUS ACTIVITY","2610 HARRISON AVE","",""
"02/11/2019","03:17","219CR0003435","SUSPICIOUS ACTIVITY","SUSPICIOUS ACTIVITY","CLARKS PARK","",""
"02/11/2019","03:49","219CR0003436","TRAFFIC HAZARD","TRAFFIC HAZARD","FIRST ST AND FARRELL ST","",""
"02/11/2019","04:16","219CR0003437","MEDICAL - EMERGENCY","MEDICAL - EMERGENCY","1001 W GALENA ST","",""
"02/11/2019","05:10","219CR0003438","CITIZEN AID","CITIZEN AID","3251 NETTIE ST","",""
"02/11/2019","05:49","219CR0003439","SUSPICIOUS ACTIVITY","SUSPICIOUS ACTIVITY","3 BEARS DR 3 BEARS ALASKA","",""
"02/11/2019","06:49","219CR0003440","ALARM - BURGLARY","ALARM - BURGLARY","************","",""
"02/11/2019","06:51","219CR0003441","ALARM - FIRE","ALARM - FIRE","300 MOUNT HIGHLAND DR","",""
 

BSB police report ending February 8, 2019

"02/07/2019","00:06","219CR0003092","DISTURBANCE","DISTURBANCE","207 W PARK ST","",""
"02/07/2019","00:43","219CR0003093","STOLEN VEHICLE","STOLEN VEHICLE","LOCUST ST AND MONROE","",""
"02/07/2019","01:30","219CR0003094","ASSIST OTHER AGENCY","ASSIST OTHER AGENCY","I15 MM 126 NB","",""
"02/07/2019","04:22","219CR0003095","MEDICAL - EMERGENCY","MEDICAL - EMERGENCY","921 W WOOLMAN","",""
"02/07/2019","05:40","219CR0003096","PROWLER","PROWLER","2600 S MAIN","",""
"02/07/2019","07:22","219CR0003097","THEFT","THEFT, ALL OTHERS","3939 HARRISON","",""
"02/07/2019","07:41","219CR0003098","ALARM - BURGLARY","ALARM - BURGLARY","************","",""
"02/07/2019","07:42","219CR0003099","CIVIL PAPER SERVICE","CIVIL PAPER SERVICE","2517 WALNUT","",""
"02/07/2019","08:00","219CR0003100","CIVIL PAPER SERVICE","CIVIL PAPER SERVICE","125 W BOARDMAN","",""
"02/07/2019","08:01","219CR0003101","WELFARE CHECK","WELFARE CHECK","130 W GALENA","",""
"02/07/2019","08:03","219CR0003102","CIVIL PAPER SERVICE","CIVIL PAPER SERVICE","3940 GLADSTONE ST","",""
"02/07/2019","08:06","219CR0003103","CIVIL PAPER SERVICE","CIVIL PAPER SERVICE","3605 OREGON","",""
"02/07/2019","08:10","219CR0003104","CIVIL PAPER SERVICE","CIVIL PAPER SERVICE","2123 ABERDEEN ST","",""
"02/07/2019","08:12","219CR0003105","CIVIL PAPER SERVICE","CIVIL PAPER SERVICE","2910 MOULTON ST","",""
"02/07/2019","08:14","219CR0003106","WELFARE CHECK","WELFARE CHECK","1866 TEXAS AVE","",""
"02/07/2019","08:16","219CR0003107","CIVIL PAPER SERVICE","CIVIL PAPER SERVICE","938 CALIFORNIA","",""
"02/07/2019","08:18","219CR0003108","CIVIL PAPER SERVICE","CIVIL PAPER SERVICE","3202 YALE AVE","",""
"02/07/2019","08:21","219CR0003109","ACCIDENT","OPERATING WITHOUT CURRENT REGI","MONTANA // PLATINUM","",""
"02/07/2019","08:24","219CR0003110","ACCIDENT","CARELESS DRIVING","GRAND AND HARRISON","",""
"02/07/2019","08:27","219CR0003111","CIVIL PAPER SERVICE","CIVIL PAPER SERVICE","1021 S ARIZONA","",""
"02/07/2019","08:31","219CR0003112","CIVIL PAPER SERVICE","CIVIL PAPER SERVICE","2015 WALNUT","",""
"02/07/2019","08:51","219CR0003113","CIVIL PAPER SERVICE","CIVIL PAPER SERVICE","667 PLACER ST","",""
"02/07/2019","08:56","219CR0003114","CIVIL PAPER SERVICE","CIVIL PAPER SERVICE","1035 S ARIZONA ST","",""
"02/07/2019","09:05","219CR0003115","DETENTION BUSINESS","DETENTION BUSINESS","************","",""
"02/07/2019","09:17","219CR0003116","CIVIL PAPER SERVICE","CIVIL PAPER SERVICE","1021 S ARIZONA","",""
"02/07/2019","09:18","219CR0003117","CIVIL PAPER SERVICE","CIVIL PAPER SERVICE","25 W CENTER","",""
"02/07/2019","09:23","219CR0003118","CIVIL PAPER SERVICE","CIVIL PAPER SERVICE","321 N JACKSON","",""
"02/07/2019","09:24","219CR0003119","ALL OTHER","ALL OTHER","1738 GRAND AVE","",""
"02/07/2019","09:28","219CR0003120","WELFARE CHECK","WELFARE CHECK","225 N ALASKA ST","",""
"02/07/2019","09:38","219CR0003121","DETENTION BUSINESS","DETENTION BUSINESS","************","",""
"02/07/2019","09:41","219CR0003122","T/S","T/S","PORPHYRY ST AND MONTANA ST","",""
"02/07/2019","09:47","219CR0003123","CIVIL PAPER SERVICE","CIVIL PAPER SERVICE","1811 4 MILE RD","",""
"02/07/2019","09:56","219CR0003124","MEDICAL - EMERGENCY","MEDICAL - EMERGENCY","210 S EXCELSIOR","",""
"02/07/2019","09:58","219CR0003125","CIVIL PAPER SERVICE","CIVIL PAPER SERVICE","2942 MAMMOTH DR","",""
"02/07/2019","10:00","219CR0003126","CIVIL PAPER SERVICE","CIVIL PAPER SERVICE","62 W BROADWAY","",""
"02/07/2019","10:00","219CR0003127","LED BUSINESS","LED BUSINESS","155 W GRANITE","",""
"02/07/2019","10:09","219CR0003128","CIVIL PAPER SERVICE","CIVIL PAPER SERVICE","643 S MAIN","",""
"02/07/2019","10:38","219CR0003129","ALARM - BURGLARY","ALARM - BURGLARY","************","",""
"02/07/2019","10:48","219CR0003130","MEDICAL - EMERGENCY","MEDICAL - EMERGENCY","721 HOBSON #4","",""
"02/07/2019","11:05","219CR0003131","SUSPICIOUS ACTIVITY","SUSPICIOUS ACTIVITY","OREGON AVE BRIDGE","",""
"02/07/2019","11:08","219CR0003132","ACCIDENT","ACCIDENT","HARRISON AND HOLMES","",""
"02/07/2019","11:10","219CR0003133","THEFT","THEFT","3901 HARRISON AVE","",""
"02/07/2019","11:15","219CR0003134","INFORMATION ONLY","INFORMATION ONLY","3440 N HILCREST DR","",""
"02/07/2019","11:20","219CR0003135","DETENTION BUSINESS","DETENTION BUSINESS","************","",""
"02/07/2019","11:30","219CR0003136","CITIZEN AID","CITIZEN AID","2723 PHILLIPS","",""
"02/07/2019","12:06","219CR0003137","ASSIST OTHER AGENCY","ASSIST OTHER AGENCY","540 S COLORADO","",""
"02/07/2019","12:28","219CR0003139","CIVIL PAPER SERVICE","CIVIL PAPER SERVICE","3901 HARRISON AVE","",""
"02/07/2019","12:33","219CR0003140","T/S","T/S","HARRISON AVE AND UTAH ST","",""
"02/07/2019","13:07","219CR0003142","WANTED PERSON","WANTED PERSON","************","",""
"02/07/2019","13:28","219CR0003143","WELFARE CHECK","WELFARE CHECK","1324 HARRISON AVE","",""
"02/07/2019","13:30","219CR0003144","JUVENILE MISC","DISORDERLY CONDUCT","1050 S MONTANA ST","ARREST(s) MADE",""
"02/07/2019","13:37","219CR0003145","TRAFFIC HAZARD","TRAFFIC HAZARD","900 BLK COLORADO ST","",""
"02/07/2019","13:41","219CR0003146","ATL","ATL","PLATINUM AND MONTANA","",""
"02/07/2019","13:41","219CR0003147","HIT AND RUN","HIT AND RUN","1300 BLK HARRISON","",""
"02/07/2019","14:04","219CR0003148","ABANDONED VEHICLE (MHP)","ABANDONED VEHICLE (MHP)","HIGHWAY 2 AND CONTINENTAL","",""
"02/07/2019","14:08","219CR0003149","DISTURBANCE","DISTURBANCE","2519 STATE ST","",""
"02/07/2019","14:16","219CR0003150","T/S","T/S @ I15 MM 127 WBND","I15 MM 127 WBND","",""
"02/07/2019","14:36","219CR0003151","SUSPICIOUS ACTIVITY","SUSPICIOUS ACTIVITY","MAROON ACTIVITY CENTER","",""
"02/07/2019","14:40","219CR0003152","T/S","DRIVE WHILE SUSP. OR REVOKED","2611 HARRISON AVE","",""
"02/07/2019","14:43","219CR0003153","THEFT","THEFT, SHOPLIFT","3901 HARRISON AVE","",""
"02/07/2019","14:55","219CR0003154","ACCIDENT","DRIVE WHILE SUSP. OR REVOKED","449 E PARK","",""
"02/07/2019","15:34","219CR0003155","ASSIST OTHER AGENCY","ASSIST OTHER AGENCY","2800 HANNIBAL ST","",""
"02/07/2019","15:37","219CR0003156","FRAUD","FRAUD","","",""
"02/07/2019","15:46","219CR0003157","VEHICLE INSPECTION","VEHICLE INSPECTION","225 N ALASKA","",""
"02/07/2019","16:10","219CR0003158","THEFT","THEFT, ALL OTHERS","BUTTE PLAZA MALL","",""
"02/07/2019","16:13","219CR0003159","T/S","T/S","MONTANA AND GOLD","",""
"02/07/2019","16:25","219CR0003160","WELFARE CHECK","WELFARE CHECK","221 TOBOGGAN","",""
"02/07/2019","16:36","219CR0003161","T/S","OPERATING WITHOUT CURRENT REGI","531 S MONTANA","",""
"02/07/2019","16:40","219CR0003162","DISTURBANCE","PFMA - REASONABLE APPREHENSION","1117 WAUKESHA","ARREST(s) MADE",""
"02/07/2019","16:43","219CR0003163","THEFT","THEFT, SHOPLIFT","3901 HARRISON AVE","ARREST(s) MADE",""
"02/07/2019","17:00","219CR0003164","ASSIST OTHER AGENCY","ASSIST OTHER AGENCY","I90 MM 238 EBND","",""
"02/07/2019","17:10","219CR0003165","ACCIDENT","ACCIDENT","ELIZABETH WARREN AND HARRISON","",""
"02/07/2019","17:12","219CR0003166","THEFT","THEFT, SHOPLIFT","3901 HARRISON AVE","ARREST(s) MADE",""
"02/07/2019","17:38","219CR0003167","SUSPICIOUS ACTIVITY","SUSPICIOUS ACTIVITY","2901 GRAND AV BSB EMP FCU","",""
"02/07/2019","17:47","219CR0003168","WELFARE CHECK","WELFARE CHECK","525 E MERCURY ST","",""
"02/07/2019","18:02","219CR0003170","T/S","T/S @ HOWARD AND GRAND","HOWARD AND GRAND","",""
"02/07/2019","18:20","219CR0003171","DISTURBANCE","DISTURBANCE","ALUMINUM ST AND MONTANA ST","",""
"02/07/2019","18:26","219CR0003172","T/S","T/S @ HARRISON AVE AND YALE AVE","HARRISON AVE AND YALE AVE","",""
"02/07/2019","18:34","219CR0003173","DISTURBANCE","DISTURBANCE","1322 CASEY","",""
"02/07/2019","19:12","219CR0003174","ALL OTHER","ALL OTHER","1002 IOWA AVE","",""
"02/07/2019","19:15","219CR0003175","PARKING COMPLAINT","PARKING COMPLAINT","505 1/2 S IDAHO ST","",""
"02/07/2019","19:33","219CR0003176","T/S","T/S","PARK ST AND EXCELSIOR AVE","",""
"02/07/2019","19:51","219CR0003177","WELFARE CHECK","WELFARE CHECK","812 SILVER BOW HOMES","",""
"02/07/2019","20:04","219CR0003178","T/S","FAIL TO YIELD THRU TRAFFIC","FRONT AND DAKOTA ST","",""
"02/07/2019","20:09","219CR0003179","SUSPICIOUS ACTIVITY","CRIMINAL TRESPASS TO VEHICLE","3901 HARRISON AVE","",""
"02/07/2019","20:13","219CR0003180","UNWANTED PERSON","UNWANTED PERSON","************","",""
"02/07/2019","20:18","219CR0003181","T/S","T/S @ HARRISON AND A ST","HARRISON AND A ST","",""
"02/07/2019","20:40","219CR0003182","WELFARE CHECK","WELFARE CHECK","2544 HARRISON AVE","",""
"02/07/2019","20:48","219CR0003183","T/S","T/S @ 2016 HARRISON AVE","2016 HARRISON AVE","",""
"02/07/2019","21:01","219CR0003184","DISTURBANCE","DISTURBANCE","12 ONEILL APT B","",""
"02/07/2019","21:04","219CR0003185","JUVENILE MISC","JUVENILE MISC","************","",""
"02/07/2019","21:06","219CR0003186","MEDICAL - EMERGENCY","MEDICAL - EMERGENCY","456 N IDAHO","",""
"02/07/2019","21:24","219CR0003187","FRAUD","FORGERY/COUNTERFEIT","2711 HARRISON AVE","",""
"02/07/2019","22:17","219CR0003188","ASSIST OTHER AGENCY","ASSIST OTHER AGENCY","I15 MM 43","",""
"02/07/2019","23:03","219CR0003189","MEDICAL - EMERGENCY","ASSAULT, SIMPLE","SAGE BRUSH SAMS 122040 NISSLER","",""
"02/08/2019","00:18","219CR0003190","MISSING PERSON","MISSING PERSON","************","",""
"02/08/2019","00:51","219CR0003191","MEDICAL - EMERGENCY","MEDICAL - EMERGENCY","2900 KENNEDY","",""
"02/08/2019","03:13","219CR0003192","THEFT","THEFT, SHOPLIFT","2544 HARRISON","",""
"02/08/2019","06:42","219CR0003194","UNKNOWN PROBLEM","UNKNOWN PROBLEM","EARTH // STAR LANE","",""
"02/08/2019","07:01","219CR0003195","MEDICAL - EMERGENCY","MEDICAL - EMERGENCY","3017 PAXSON AVE","",""
 

BSB police report for February 7, 2019

"02/06/2019","00:00","219CR0002983","SUSPICIOUS ACTIVITY","SUSPICIOUS ACTIVITY","900 BLK S DAKOTA","",""
"02/06/2019","00:35","219CR0002984","T/S","T/S","SILVER ST AND IDAHO ST","",""
"02/06/2019","00:57","219CR0002985","SUSPICIOUS ACTIVITY","SUSPICIOUS ACTIVITY","5TH AND DALY ST","",""
"02/06/2019","01:16","219CR0002986","THEFT","THEFT FROM MOTOR VEHICLE","310 W BROADWAY","",""
"02/06/2019","01:47","219CR0002987","HIT AND RUN","AGGRAVATED DUI","BROADWAY AND MAIN","ARREST(s) MADE",""
"02/06/2019","01:53","219CR0002988","ATL","ATL","1000 GRIZZLY TRAIL","",""
"02/06/2019","01:55","219CR0002989","SUSPICIOUS ACTIVITY","SUSPICIOUS ACTIVITY","GALENA & WASHINGTON","",""
"02/06/2019","02:34","219CR0002990","MEDICAL - EMERGENCY","MEDICAL - EMERGENCY","1506 SILVER BOW HOMES","",""
"02/06/2019","02:42","219CR0002991","ASSAULT","ASSAULT","************","",""
"02/06/2019","03:55","219CR0002992","SUSPICIOUS ACTIVITY","SUSPICIOUS ACTIVITY","1324 HARRISON AVE","",""
"02/06/2019","04:06","219CR0002993","SUSPICIOUS ACTIVITY","SUSPICIOUS ACTIVITY","1000 GRIZZLY TRAIL","",""
"02/06/2019","04:10","219CR0002994","CITIZEN AID","CITIZEN AID","FRONT ST AND MISSOURI ST","",""
"02/06/2019","05:05","219CR0002995","SUSPICIOUS ACTIVITY","SUSPICIOUS ACTIVITY","1000 GRIZZLY TR","",""
"02/06/2019","05:36","219CR0002996","DETENTION BUSINESS","DETENTION BUSINESS","************","",""
"02/06/2019","06:09","219CR0002997","ACCIDENT-MHP","ACCIDENT-MHP","I90 MM 237 WB","",""
"02/06/2019","06:38","219CR0002998","SUSPICIOUS ACTIVITY","REVOCATION OF SENTENCE","3100 BLK HANNIBAL ST","ARREST(s) MADE",""
"02/06/2019","07:11","219CR0002999","SUSPICIOUS ACTIVITY","SUSPICIOUS ACTIVITY","1500 BLK ELM","",""
"02/06/2019","07:29","219CR0003000","WELFARE CHECK","WELFARE CHECK","323 S MONTANA","",""
"02/06/2019","07:42","219CR0003001","UNWANTED PERSON","UNWANTED PERSON","************","",""
"02/06/2019","08:01","219CR0003002","THEFT","THEFT, SHOPLIFT","3901 HARRISON AVE","",""
"02/06/2019","08:03","219CR0003003","FRAUD","FRAUD","317 ANACONDA RD","",""
"02/06/2019","08:16","219CR0003004","MEDICAL - EMERGENCY","MEDICAL - EMERGENCY","1500 ROW SILVER BOW HMS","",""
"02/06/2019","08:26","219CR0003005","DISTURBANCE","DISTURBANCE","1325 FARRELL","",""
"02/06/2019","08:32","219CR0003006","ALL OTHER","ALL OTHER","HARDING WAY","",""
"02/06/2019","08:41","219CR0003007","FIRE - VEHICLE","FIRE - VEHICLE","100 BLK HAMILTON","",""
"02/06/2019","09:00","219CR0003008","DETENTION BUSINESS","DETENTION BUSINESS","************","",""
"02/06/2019","09:06","219CR0003010","ALARM - BURGLARY","ALARM - BURGLARY","************","",""
"02/06/2019","09:18","219CR0003011","DETENTION BUSINESS","DETENTION BUSINESS","************","",""
"02/06/2019","09:23","219CR0003012","PARKING COMPLAINT","PARKING COMPLAINT","2500 BLK GRAND","",""
"02/06/2019","09:32","219CR0003013","CIVIL PAPER SERVICE","CIVIL PAPER SERVICE","1032 DELAWARE ST","",""
"02/06/2019","09:36","219CR0003014","ACCIDENT-MHP","ACCIDENT-MHP","116020 S BUXTON RD","",""
"02/06/2019","09:39","219CR0003015","CIVIL PAPER SERVICE","CIVIL PAPER SERVICE","1114 MARYLAND","",""
"02/06/2019","09:39","219CR0003016","CIVIL PAPER SERVICE","CIVIL PAPER SERVICE","2210 HARVARD AVE","",""
"02/06/2019","09:41","219CR0003017","CIVIL PAPER SERVICE","CIVIL PAPER SERVICE","2517 WALNUT","",""
"02/06/2019","09:52","219CR0003018","UNWANTED PERSON","CRIMINAL MISCHIEF","427 W SILVER","ARREST(s) MADE",""
"02/06/2019","09:53","219CR0003019","DISORDERLY CONDUCT","DISORDERLY CONDUCT","1050 S MONTANA","ARREST(s) MADE",""
"02/06/2019","10:00","219CR0003020","PARKING COMPLAINT","PARKING COMPLAINT","2034 LOCUST","",""
"02/06/2019","10:06","219CR0003021","LED BUSINESS","LED BUSINESS","24 E COPPER HAYES MORRIS HOUSE","",""
"02/06/2019","10:12","219CR0003022","JUVENILE MISC","JUVENILE MISC","************","",""
"02/06/2019","10:23","219CR0003023","ALL OTHER","ALL OTHER","EXCELSIOR AND PLATINUM","",""
"02/06/2019","10:27","219CR0003024","JUVENILE MISC","JUVENILE MISC","************","",""
"02/06/2019","10:38","219CR0003025","ACCIDENT-MHP","ACCIDENT-MHP","I15 SB MM 108","",""
"02/06/2019","10:44","219CR0003026","TRAFFIC HAZARD","TRAFFIC HAZARD","I15 MM 124 NB","",""
"02/06/2019","10:45","219CR0003027","ACCIDENT-MHP","ACCIDENT-MHP","I15 MP 100 SB","",""
"02/06/2019","11:09","219CR0003028","BURGLARY","THEFT, ALL OTHERS","10 E WOOLMAN","ARREST(s) MADE",""
"02/06/2019","11:16","219CR0003029","ACCIDENT","ACCIDENT","3900 BLK HARRISON","",""
"02/06/2019","11:56","219CR0003031","ACCIDENT","CARELESS DRIVING","BUSCH AND HOLMES","",""
"02/06/2019","12:01","219CR0003032","THEFT","THEFT OF IDENTITY","1012 CALIFORNIA AVE","",""
"02/06/2019","12:08","219CR0003033","THEFT","THEFT FROM MOTOR VEHICLE","3499 HARRISON AVE/HAMPTON INN","",""
"02/06/2019","12:12","219CR0003034","ACCIDENT","ACCIDENT","I 15 EXIT 127B","",""
"02/06/2019","12:19","219CR0003035","HARASSMENT","HARASSMENT","1231 E FIRST","",""
"02/06/2019","12:32","219CR0003037","DISTURBANCE","DISTURBANCE","GEORGE AND HARRISON","",""
"02/06/2019","12:36","219CR0003038","SUSPICIOUS ACTIVITY","SUSPICIOUS ACTIVITY","HOLLAND AND DAKOTA","",""
"02/06/2019","12:52","219CR0003039","TRAFFIC HAZARD","TRAFFIC HAZARD","700 BLK S ARIZONA","",""
"02/06/2019","12:53","219CR0003040","WELFARE CHECK","WELFARE CHECK","633 S MONTANA ST","",""
"02/06/2019","12:58","219CR0003041","DETENTION BUSINESS","DETENTION BUSINESS","************","",""
"02/06/2019","13:05","219CR0003042","MEDICAL - EMERGENCY","MEDICAL - EMERGENCY","50 W BROADWAY #603","",""
"02/06/2019","13:07","219CR0003043","TRAFFIC HAZARD","TRAFFIC HAZARD","BASIN CREEK RD","",""
"02/06/2019","13:07","219CR0003044","ALL OTHER","ALL OTHER","3516 S WARREN","",""
"02/06/2019","13:25","219CR0003045","ANIMAL COMPLAINT","ANIMAL COMPLAINT","I90 216 EB","",""
"02/06/2019","13:28","219CR0003046","T/S","T/S","FRONT AT DAKOTA","",""
"02/06/2019","13:32","219CR0003047","ACCIDENT","ACCIDENT","S ROCKER RD","",""
"02/06/2019","14:06","219CR0003048","ACCIDENT","ACCIDENT","ELIZABETH WARREN AND HARRISON","",""
"02/06/2019","14:08","219CR0003049","VEHICLE INSPECTION","VEHICLE INSPECTION","9 SUNVIEW TERRACE","",""
"02/06/2019","14:21","219CR0003050","ALL OTHER","ALL OTHER","201 HOBSON #12","",""
"02/06/2019","14:27","219CR0003051","MEDICAL - EMERGENCY","MEDICAL - EMERGENCY","155 W QUARTZ BSB DETENTION CEN","",""
"02/06/2019","14:33","219CR0003052","T/S","T/S","BROADWAY AND MONTANA","",""
"02/06/2019","14:40","219CR0003053","ABANDONED VEHICLE","ABANDONED VEHICLE","1029 NEVADA","",""
"02/06/2019","14:42","219CR0003054","DETENTION BUSINESS","DETENTION BUSINESS","************","",""
"02/06/2019","14:45","219CR0003055","T/S","BUY/POSSESS STOLEN PROPERTY","CENTENNIAL AND SANTA CLAUS WY","ARREST(s) MADE",""
"02/06/2019","15:19","219CR0003056","T/S","T/S","2300 BLK HARRISON","",""
"02/06/2019","15:20","219CR0003057","ALL OTHER","ALL OTHER","1812 A ST","",""
"02/06/2019","15:23","219CR0003058","WELFARE CHECK","WELFARE CHECK","117 HAMILTON 3A","",""
"02/06/2019","15:29","219CR0003059","ALL OTHER","ALL OTHER","2600 GRAND AVE","",""
"02/06/2019","15:30","219CR0003060","ACCIDENT","ACCIDENT","NEVADA AVE AND PLATINUM ST","",""
"02/06/2019","15:31","219CR0003061","WELFARE CHECK","WELFARE CHECK","220 N WYOMING MOTEL 6","",""
"02/06/2019","15:35","219CR0003062","T/S","RED (STOP) LIGHT VIOLATION","800 BLK UTAH AVE","",""
"02/06/2019","16:17","219CR0003063","VEHICLE INSPECTION","VEHICLE INSPECTION","225 N ALASKA","",""
"02/06/2019","16:19","219CR0003064","MISSING PERSON","MISSING PERSON","************","",""
"02/06/2019","16:35","219CR0003065","MEDICAL - EMERGENCY","MEDICAL - EMERGENCY","408 S DAKOTA","",""
"02/06/2019","17:04","219CR0003066","ACCIDENT","ACCIDENT","I15 MM 101","",""
"02/06/2019","17:05","219CR0003067","ANIMAL COMPLAINT","ANIMAL COMPLAINT","400 BLK W DALY","",""
"02/06/2019","17:14","219CR0003068","MEDICAL - EMERGENCY","MEDICAL - EMERGENCY","155 W QUARTZ BSB DETENTION CEN","",""
"02/06/2019","17:29","219CR0003069","WELFARE CHECK","WELFARE CHECK","2825 FARRAGUT AVE #C103","",""
"02/06/2019","17:35","219CR0003070","ALARM - BURGLARY","ALARM - BURGLARY","************","",""
"02/06/2019","17:44","219CR0003071","SUSPICIOUS ACTIVITY","SUSPICIOUS ACTIVITY","BEEF TRAIL RD","",""
"02/06/2019","18:06","219CR0003072","SUSPICIOUS ACTIVITY","SUSPICIOUS ACTIVITY","DEWEY BLVD AND KENNEDY AV","",""
"02/06/2019","18:09","219CR0003073","ACCIDENT","ACCIDENT","GEORGE AND MONTANA","",""
"02/06/2019","18:17","219CR0003074","LED BUSINESS","LED BUSINESS","400 S CLARK ST JAMES ER","",""
"02/06/2019","18:22","219CR0003075","ASSIST OTHER AGENCY","ASSIST OTHER AGENCY","I15 MM 122","",""
"02/06/2019","18:53","219CR0003076","SUSPICIOUS ACTIVITY","SUSPICIOUS ACTIVITY","600 BLK W GOLD","",""
"02/06/2019","18:57","219CR0003077","MEDICAL - ASSIST","MEDICAL - ASSIST","************","",""
"02/06/2019","19:19","219CR0003078","FIRE - STRUCTURE","FIRE - STRUCTURE","2307 HARRISON AVE","",""
"02/06/2019","19:46","219CR0003080","SUSPICIOUS ACTIVITY","SUSPICIOUS ACTIVITY","MONTANA ST AND PORPHYRY ST","",""
"02/06/2019","19:46","219CR0003079","T/S","T/S @ ","","",""
"02/06/2019","20:14","219CR0003081","ATL","ATL","3200 BLK HARRISON","",""
"02/06/2019","20:14","219CR0003082","VANDALISM/CRIMINAL MISCHIEF","VANDALISM/CRIMINAL MISCHIEF","652 S IDAHO","",""
"02/06/2019","20:17","219CR0003083","ALARM - BURGLARY","POSSESS DRUG PARAPHERNALIA","111 N MONTANA ST","ARREST(s) MADE",""
"02/06/2019","21:22","219CR0003084","WANTED PERSON","WANTED PERSON","************","",""
"02/06/2019","21:24","219CR0003085","MEDICAL - EMERGENCY","MEDICAL - EMERGENCY","50 W BROADWAY APT 603","",""
"02/06/2019","21:27","219CR0003086","ASSAULT","ASSAULT, SIMPLE","55 BASIN CREEK RD","ARREST(s) MADE",""
"02/06/2019","21:51","219CR0003087","VANDALISM/CRIMINAL MISCHIEF","THEFT FROM MOTOR VEHICLE","4040 PAXSON","",""
"02/06/2019","21:57","219CR0003088","VANDALISM/CRIMINAL MISCHIEF","THEFT FROM MOTOR VEHICLE","3255 HECLA","",""
"02/06/2019","21:57","219CR0003089","SUSPICIOUS ACTIVITY","SUSPICIOUS ACTIVITY","3100 HARRISON AVE","",""
"02/06/2019","22:11","219CR0003090","ATL","ATL","BUTTE AREA","",""
"02/06/2019","22:48","219CR0003091","UNKNOWN PROBLEM","UNKNOWN PROBLEM","50 W BROADWAY ST","",""
"02/07/2019","00:06","219CR0003092","DISTURBANCE","DISTURBANCE","207 W PARK ST","",""
"02/07/2019","00:43","219CR0003093","STOLEN VEHICLE","STOLEN VEHICLE","LOCUST ST AND MONROE","",""
"02/07/2019","01:30","219CR0003094","ASSIST OTHER AGENCY","ASSIST OTHER AGENCY","I15 MM 126 NB","",""
"02/07/2019","04:22","219CR0003095","MEDICAL - EMERGENCY","MEDICAL - EMERGENCY","921 W WOOLMAN","",""
"02/07/2019","05:40","219CR0003096","PROWLER","PROWLER","2600 S MAIN","",""
"02/07/2019","07:22","219CR0003097","THEFT","THEFT","3939 HARRISON","",""
"02/07/2019","07:41","219CR0003098","ALARM - BURGLARY","ALARM - BURGLARY","************","",""
"02/07/2019","07:42","219CR0003099","CIVIL PAPER SERVICE","CIVIL PAPER SERVICE","2517 WALNUT","",""
"02/07/2019","08:00","219CR0003100","CIVIL PAPER SERVICE","CIVIL PAPER SERVICE","125 W BOARDMAN","",""
"02/07/2019","08:03","219CR0003102","CIVIL PAPER SERVICE","CIVIL PAPER SERVICE","3940 GLADSTONE ST","",""
 

BSB police report for February 5, 2019

"02/04/2019","00:45","219CR0002837","DISTURBANCE","DISTURBANCE","1230 RACOON WAY","",""
"02/04/2019","00:58","219CR0002838","INTOXICATED PERSON","INTOXICATED PERSON","FAIRMONT","",""
"02/04/2019","01:20","219CR0002839","THEFT","THEFT","531 MONTANA","",""
"02/04/2019","01:38","219CR0002840","T/S","T/S @ ","","",""
"02/04/2019","02:40","219CR0002841","PROWLER","PROWLER","130 S EXCELSIOR","",""
"02/04/2019","03:05","219CR0002842","MEDICAL - EMERGENCY","MEDICAL - EMERGENCY","3033 BUSCH APT 5","",""
"02/04/2019","03:23","219CR0002843","PROWLER","PROWLER","309 W DALY","",""
"02/04/2019","04:32","219CR0002844","ANIMAL COMPLAINT","ANIMAL COMPLAINT","ELIZABETH WARREN AND MONROE","",""
"02/04/2019","04:47","219CR0002845","FIRE - OTHER","FIRE - OTHER","1127 SCHLEY","",""
"02/04/2019","05:07","219CR0002846","ALARM - BURGLARY","ALARM - BURGLARY","************","",""
"02/04/2019","05:27","219CR0002847","MEDICAL - EMERGENCY","MEDICAL - EMERGENCY","1127 SCHLEY","",""
"02/04/2019","06:11","219CR0002848","ACCIDENT","ACCIDENT","3450 S HILLCREST","",""
"02/04/2019","07:45","219CR0002849","THEFT","THEFT OF VEHICLE PARTS/ACCESSO","323 W DALY","",""
"02/04/2019","07:52","219CR0002850","CITIZEN AID","CITIZEN AID","40 E GRANITE #3A","",""
"02/04/2019","07:55","219CR0002851","ANIMAL COMPLAINT","ANIMAL COMPLAINT","ELIZABETH WARREN AND HARRISON","",""
"02/04/2019","08:50","219CR0002852","CIVIL PAPER SERVICE","CIVIL PAPER SERVICE","1105 FARRELL","",""
"02/04/2019","09:01","219CR0002853","T/S","T/S","1000 BLK UTAH AVE","",""
"02/04/2019","09:12","219CR0002854","CIVIL PAPER SERVICE","CIVIL PAPER SERVICE","838 ZARELDA","",""
"02/04/2019","09:19","219CR0002855","THEFT","THEFT FROM MOTOR VEHICLE","1011 E 2ND ST","",""
"02/04/2019","09:28","219CR0002856","DETENTION BUSINESS","DETENTION BUSINESS","************","",""
"02/04/2019","09:33","219CR0002857","ACCIDENT","ACCIDENT","400 S CLARK","",""
"02/04/2019","09:38","219CR0002858","CITIZEN AID","CITIZEN AID","1231 E 1ST","",""
"02/04/2019","09:41","219CR0002859","ACCIDENT-MHP","ACCIDENT-MHP","801 BEEF TRAIL RD","",""
"02/04/2019","09:47","219CR0002860","LED BUSINESS","LED BUSINESS","24 E COPPER","",""
"02/04/2019","09:48","219CR0002861","ALARM - BURGLARY","ALARM - BURGLARY","************","",""
"02/04/2019","10:35","219CR0002862","WELFARE CHECK","WELFARE CHECK","2929 HARRISON SUPER 8 MOTEL","",""
"02/04/2019","10:41","219CR0002863","STOLEN VEHICLE","UNAUTHORIZED USE OF MOTOR VEH","1397 SUNRISE LANE","",""
"02/04/2019","11:26","219CR0002864","ATL","ATL","ROWE RD AND MONTANA","",""
"02/04/2019","11:29","219CR0002865","STOLEN VEHICLE","STOLEN VEHICLE","1407 HARRISON MT AFFORDABLE 4X","",""
"02/04/2019","11:43","219CR0002866","HARASSMENT","HARASSMENT","1231 E FIRST ST","",""
"02/04/2019","12:06","219CR0002867","ALARM - BURGLARY","ALARM - BURGLARY","************","",""
"02/04/2019","12:23","219CR0002868","FRAUD","FRAUD","235 7TH ST","",""
"02/04/2019","12:24","219CR0002869","ASSIST OTHER AGENCY","ASSIST OTHER AGENCY","145 MOOSE CR RD","",""
"02/04/2019","12:55","219CR0002870","BURGLARY","BURGLARY","53 E PARK","",""
"02/04/2019","13:05","219CR0002871","BUSINESS CHECK","BUSINESS CHECK","58 W PARK ST PARKING GARAGE","",""
"02/04/2019","13:07","219CR0002872","SUSPICIOUS ACTIVITY","SUSPICIOUS ACTIVITY","100 BLK N MONTANA","",""
"02/04/2019","13:29","219CR0002873","ALARM - FIRE","ALARM - FIRE","300 MOUNT HIGHLAND THE SPRINGS","",""
"02/04/2019","13:45","219CR0002874","MEDICAL - EMERGENCY","MEDICAL - EMERGENCY","155 W QUARTZ","",""
"02/04/2019","13:53","219CR0002875","THEFT","THEFT, ALL OTHERS","119975 RICK JONES WY","",""
"02/04/2019","14:08","219CR0002876","ACCIDENT","CARELESS DRIVING","HARRISON // A STREET","",""
"02/04/2019","14:17","219CR0002877","WANTED PERSON","WANTED PERSON","************","",""
"02/04/2019","14:20","219CR0002878","T/S","T/S","CONTINENTAL DR AND HANNIBAL ST","",""
"02/04/2019","14:34","219CR0002879","SUSPICIOUS ACTIVITY","SUSPICIOUS ACTIVITY","1500 BLK ELM S ALLEY","",""
"02/04/2019","14:35","219CR0002880","TRAFFIC HAZARD","TRAFFIC HAZARD","500 BLK N WYOMING","",""
"02/04/2019","15:28","219CR0002881","SUSPICIOUS ACTIVITY","SUSPICIOUS ACTIVITY","1000 BLK E SECOND","",""
"02/04/2019","15:30","219CR0002882","CIVIL PAPER SERVICE","CIVIL PAPER SERVICE","1125 S MAIN #315","",""
"02/04/2019","15:41","219CR0002883","FOUND PROPERTY","FOUND PROPERTY","************","",""
"02/04/2019","15:52","219CR0002884","THEFT","THEFT, SHOPLIFT","901 E FRONT THRIFTWAY","",""
"02/04/2019","16:22","219CR0002885","BUSINESS CHECK","BUSINESS CHECK","2544 HARRISON LISACS TRI STOP","",""
"02/04/2019","16:29","219CR0002886","VEHICLE INSPECTION","VEHICLE INSPECTION","536 CALEDONIA","",""
"02/04/2019","16:36","219CR0002887","DISTURBANCE-NOISE","DISTURBANCE-NOISE","2645 GOODWIN","",""
"02/04/2019","16:42","219CR0002888","CIVIL PAPER SERVICE","CIVIL PAPER SERVICE","155 W QUARTZ BSB DETENTION CEN","",""
"02/04/2019","16:51","219CR0002889","JUVENILE RUNAWAY","JUVENILE RUNAWAY","************","",""
"02/04/2019","17:20","219CR0002890","MEDICAL - EMERGENCY","MEDICAL - EMERGENCY","6 CEDAR LAKE DR","",""
"02/04/2019","17:27","219CR0002891","ALL OTHER","ALL OTHER","840 W PARK ST","",""
"02/04/2019","17:50","219CR0002892","ACCIDENT - INJURY","DRIVE WHILE SUSP. OR REVOKED","CHULA AND S MONTANA","",""
"02/04/2019","18:02","219CR0002893","CIVIL STANDBY","CIVIL STANDBY","225 N ALASKA","",""
"02/04/2019","18:27","219CR0002894","ATL","ATL","HARRISON AND HOLMES","",""
"02/04/2019","18:36","219CR0002895","THEFT","THEFT","712 E FRONT ST","",""
"02/04/2019","18:45","219CR0002896","WANTED PERSON","CRIMINAL CONTEMPT","BUSCH AND HOLMES","ARREST(s) MADE",""
"02/04/2019","18:53","219CR0002897","DISTURBANCE","DISTURBANCE","400 BLK W MERCURY","",""
"02/04/2019","19:57","219CR0002898","ALARM - MEDICAL","ALARM - MEDICAL","************","",""
"02/04/2019","20:14","219CR0002899","BUSINESS CHECK","BUSINESS CHECK","2544 HARRISON","",""
"02/04/2019","20:15","219CR0002900","T/S","T/S @ HARRISON AVENUE/CIVIC CENTER R","HARRISON AVENUE/CIVIC CENTER R","",""
"02/04/2019","20:31","219CR0002901","CITIZEN AID","CITIZEN AID","2800 BLK HARRISON AV","",""
"02/04/2019","20:45","219CR0002902","MEDICAL - EMERGENCY","MEDICAL - EMERGENCY","2820 KOSSUTH","",""
"02/04/2019","21:06","219CR0002903","STOLEN VEHICLE","STOLEN VEHICLE","27 E GALENA","",""
"02/04/2019","21:09","219CR0002904","SUSPICIOUS ACTIVITY","SUSPICIOUS ACTIVITY","CALIFORNIA AND FRONT ST","",""
"02/04/2019","21:16","219CR0002905","THEFT","THEFT","82 BURNING TREE LANE","",""
"02/04/2019","21:51","219CR0002906","WELFARE CHECK","WELFARE CHECK","2051 HARRISON","",""
"02/04/2019","22:13","219CR0002907","FRAUD","FRAUD","3700 HARRISON AVE","",""
"02/04/2019","23:07","219CR0002908","WELFARE CHECK","WELFARE CHECK","403 W GRANITE","",""
"02/04/2019","23:46","219CR0002909","THEFT","THEFT","117 N HAMILTON APT 3A","",""
"02/04/2019","23:50","219CR0002910","BUSINESS CHECK","BUSINESS CHECK","2544 HARRISON LISACS TRI STOP","",""
"02/05/2019","00:50","219CR0002911","ATL","ATL","ARIZONA AND MOTORVIEW","",""
"02/05/2019","01:24","219CR0002912","SUSPICIOUS ACTIVITY","SUSPICIOUS ACTIVITY","225 N ALASKA","",""
"02/05/2019","01:38","219CR0002913","DISTURBANCE","DISTURBANCE","16 W GALENA APT A","",""
 

Subcategories

Wednesday the 20th. Affiliate Marketing.
Copyright 2012

©